SAS7085 ENSB-ENGM

Flight info

Callsign SAS7085
Flight time 2h 39m
Altitude 37000
Route AMPIS DCT LIPSA/N0455F390 DCT SOMUB DCT ABUNO DCT INREX
Aircraft B736/M-SDE2E3FGHIRWXY/L

Departure

Time 2026-05-07 14:37
Airport Svalbard Airport, Longyear (ENSB)

Arrival

Time 2026-05-07 17:16
Airport Oslo-Gardermoen International Airport (ENGM)
Time Latitude Longitude Altitude Speed Heading
2026-05-07 13:35 78.24598 15.49824 87 ft 0 kts 105°
2026-05-07 14:25 78.24598 15.49817 87 ft 2 kts 105°
2026-05-07 14:25 78.24605 15.49699 87 ft 4 kts 105°
2026-05-07 14:25 78.24613 15.49575 88 ft 4 kts 104°
2026-05-07 14:26 78.24619 15.49447 88 ft 4 kts 111°
2026-05-07 14:26 78.24621 15.49416 90 ft 0 kts 128°
2026-05-07 14:28 78.24618 15.49434 89 ft 2 kts 128°
2026-05-07 14:29 78.24599 15.49500 89 ft 5 kts 154°
2026-05-07 14:29 78.24550 15.49510 87 ft 9 kts 190°
2026-05-07 14:29 78.24491 15.49427 88 ft 9 kts 200°
2026-05-07 14:29 78.24466 15.49179 87 ft 9 kts 277°
2026-05-07 14:30 78.24484 15.48844 88 ft 12 kts 285°
2026-05-07 14:30 78.24511 15.48385 89 ft 16 kts 285°
2026-05-07 14:30 78.24544 15.47793 87 ft 20 kts 285°
2026-05-07 14:30 78.24584 15.47089 88 ft 23 kts 285°
2026-05-07 14:31 78.24628 15.46296 88 ft 24 kts 285°
2026-05-07 14:31 78.24670 15.45531 88 ft 23 kts 285°
2026-05-07 14:31 78.24711 15.44794 89 ft 22 kts 284°
2026-05-07 14:31 78.24751 15.44076 90 ft 21 kts 285°
2026-05-07 14:32 78.24790 15.43380 87 ft 21 kts 285°
2026-05-07 14:32 78.24827 15.42703 88 ft 20 kts 285°
2026-05-07 14:32 78.24863 15.42048 89 ft 20 kts 285°
2026-05-07 14:32 78.24893 15.41497 87 ft 11 kts 284°
2026-05-07 14:33 78.24925 15.41206 87 ft 8 kts 265°
2026-05-07 14:33 78.24898 15.41259 88 ft 7 kts 80°
2026-05-07 14:33 78.24895 15.41486 90 ft 4 kts 107°
2026-05-07 14:33 78.24895 15.41490 90 ft 0 kts 107°
2026-05-07 14:36 78.24887 15.41614 87 ft 15 kts 107°
2026-05-07 14:36 78.24797 15.43236 90 ft 83 kts 105°
2026-05-07 14:36 78.24594 15.46906 94 ft 136 kts 104°
2026-05-07 14:36 78.24307 15.51519 499 ft 145 kts 107°
2026-05-07 14:37 78.23993 15.56434 1000 ft 153 kts 109°
2026-05-07 14:37 78.22837 15.65510 2083 ft 172 kts 123°
2026-05-07 14:37 78.22134 15.70767 2354 ft 197 kts 122°
2026-05-07 14:38 78.21351 15.76698 2579 ft 218 kts 122°
2026-05-07 14:38 78.20493 15.83266 2840 ft 241 kts 122°
2026-05-07 14:38 78.19579 15.90331 3483 ft 250 kts 121°
2026-05-07 14:38 78.18649 15.97561 4265 ft 252 kts 121°
2026-05-07 14:39 78.17717 16.04837 5062 ft 254 kts 121°
2026-05-07 14:39 78.16773 16.12226 5762 ft 257 kts 121°
2026-05-07 14:39 78.15826 16.19651 6559 ft 259 kts 121°
2026-05-07 14:39 78.14869 16.27135 7327 ft 261 kts 121°
2026-05-07 14:40 78.13900 16.34699 8074 ft 265 kts 121°
2026-05-07 14:40 78.12920 16.42341 8943 ft 268 kts 120°
2026-05-07 14:40 78.11932 16.50026 9852 ft 270 kts 121°
2026-05-07 14:40 78.10928 16.57802 10656 ft 276 kts 120°
2026-05-07 14:41 78.09866 16.66028 10950 ft 300 kts 121°
2026-05-07 14:41 78.08729 16.74780 11507 ft 312 kts 121°
2026-05-07 14:41 78.07561 16.83733 12275 ft 317 kts 121°
2026-05-07 14:41 78.06373 16.92787 13104 ft 321 kts 121°
2026-05-07 14:42 78.05170 17.01923 13956 ft 325 kts 121°
2026-05-07 14:42 78.04362 17.08042 14473 ft 328 kts 121°
2026-05-07 14:42 78.03127 17.17361 15251 ft 332 kts 121°
2026-05-07 14:42 78.01448 17.29980 16334 ft 337 kts 121°
2026-05-07 14:43 78.00607 17.36279 16852 ft 340 kts 121°
2026-05-07 14:43 77.99317 17.45869 17639 ft 344 kts 121°
2026-05-07 14:43 77.98001 17.55544 18448 ft 349 kts 123°
2026-05-07 14:43 77.96266 17.63778 19112 ft 358 kts 146°
2026-05-07 14:44 77.93937 17.68221 19835 ft 366 kts 167°
2026-05-07 14:44 77.91376 17.68475 20535 ft 373 kts 186°
2026-05-07 14:44 77.88796 17.66521 21233 ft 378 kts 188°
2026-05-07 14:44 77.86187 17.64272 21886 ft 384 kts 189°
2026-05-07 14:45 77.83548 17.61922 22569 ft 388 kts 189°
2026-05-07 14:45 77.80883 17.59564 23268 ft 392 kts 188°
2026-05-07 14:45 77.78182 17.57221 23933 ft 396 kts 188°
2026-05-07 14:45 77.75455 17.54905 24504 ft 400 kts 188°
2026-05-07 14:46 77.72702 17.52608 25080 ft 403 kts 188°
2026-05-07 14:46 77.69928 17.50326 25663 ft 407 kts 188°
2026-05-07 14:46 77.67126 17.48048 26229 ft 410 kts 188°
2026-05-07 14:46 77.64300 17.45767 26788 ft 414 kts 188°
2026-05-07 14:47 77.61452 17.43482 27333 ft 418 kts 188°
2026-05-07 14:47 77.58575 17.41186 27866 ft 421 kts 188°
2026-05-07 14:47 77.55672 17.38881 28388 ft 425 kts 188°
2026-05-07 14:47 77.52745 17.36569 28909 ft 428 kts 188°
2026-05-07 14:48 77.49796 17.34249 29399 ft 432 kts 188°
2026-05-07 14:48 77.46825 17.31923 29889 ft 435 kts 188°
2026-05-07 14:48 77.43830 17.29588 30346 ft 438 kts 188°
2026-05-07 14:48 77.40812 17.27247 30717 ft 442 kts 188°
2026-05-07 14:49 77.37766 17.24896 31087 ft 444 kts 188°
2026-05-07 14:49 77.34707 17.22545 31444 ft 447 kts 188°
2026-05-07 14:49 77.31630 17.20192 31781 ft 450 kts 188°
2026-05-07 14:49 77.28529 17.17831 32096 ft 453 kts 188°
2026-05-07 14:50 77.25409 17.15471 32400 ft 456 kts 188°
2026-05-07 14:50 77.22278 17.13112 32771 ft 457 kts 188°
2026-05-07 14:50 77.19149 17.10764 33224 ft 455 kts 188°
2026-05-07 14:50 77.16025 17.08431 33661 ft 455 kts 188°
2026-05-07 14:51 77.12905 17.06112 34045 ft 455 kts 188°
2026-05-07 14:51 77.09774 17.03798 34367 ft 456 kts 188°
2026-05-07 14:51 77.06644 17.01496 34669 ft 456 kts 188°
2026-05-07 14:51 77.03517 16.99207 34985 ft 455 kts 188°
2026-05-07 14:52 77.00395 16.96933 35286 ft 455 kts 188°
2026-05-07 14:52 76.97270 16.94668 35550 ft 455 kts 188°
2026-05-07 14:52 76.94141 16.92412 35828 ft 455 kts 188°
2026-05-07 14:52 76.91013 16.90165 36102 ft 455 kts 188°
2026-05-07 14:53 76.87884 16.87930 36346 ft 456 kts 188°
2026-05-07 14:53 76.84750 16.85701 36569 ft 457 kts 188°
2026-05-07 14:53 76.81661 16.83514 36871 ft 455 kts 188°
2026-05-07 14:53 76.78533 16.81310 37151 ft 455 kts 188°
2026-05-07 14:54 76.75411 16.79120 37386 ft 455 kts 188°
2026-05-07 14:54 76.72276 16.76931 37569 ft 457 kts 188°
2026-05-07 14:54 76.69139 16.74752 37789 ft 457 kts 188°
2026-05-07 14:54 76.66006 16.72588 38126 ft 454 kts 188°
2026-05-07 14:55 76.62886 16.70443 38393 ft 454 kts 188°
2026-05-07 14:55 76.59768 16.68308 38594 ft 454 kts 188°
2026-05-07 14:55 76.56644 16.66178 38758 ft 455 kts 188°
2026-05-07 14:55 76.53510 16.64050 38954 ft 455 kts 188°
2026-05-07 14:56 76.50383 16.61937 39156 ft 454 kts 188°
2026-05-07 14:56 76.47265 16.59839 39280 ft 454 kts 188°
2026-05-07 14:56 76.41004 16.55657 39298 ft 456 kts 188°
2026-05-07 14:57 76.34733 16.51507 39299 ft 456 kts 188°
2026-05-07 14:57 76.28451 16.47388 39300 ft 457 kts 188°
2026-05-07 14:58 76.22164 16.43303 39286 ft 457 kts 188°
2026-05-07 14:58 76.15878 16.39255 39287 ft 457 kts 188°
2026-05-07 14:59 76.09595 16.35246 39273 ft 457 kts 188°
2026-05-07 14:59 76.03317 16.31275 39282 ft 456 kts 188°
2026-05-07 15:00 75.97048 16.27346 39282 ft 455 kts 188°
2026-05-07 15:00 75.90790 16.23457 39271 ft 455 kts 188°
2026-05-07 15:01 75.84535 16.19605 39285 ft 454 kts 188°
2026-05-07 15:01 75.78332 16.15817 39269 ft 454 kts 188°
2026-05-07 15:02 75.72088 16.12038 39274 ft 453 kts 188°
2026-05-07 15:02 75.65854 16.08297 39270 ft 453 kts 188°
2026-05-07 15:03 75.59619 16.04588 39255 ft 453 kts 188°
2026-05-07 15:03 75.53384 16.00910 39268 ft 453 kts 188°
2026-05-07 15:04 75.47154 15.97266 39265 ft 453 kts 188°
2026-05-07 15:04 75.40921 15.93652 39261 ft 453 kts 188°
2026-05-07 15:05 75.34682 15.90064 39260 ft 453 kts 188°
2026-05-07 15:05 75.28444 15.86507 39254 ft 453 kts 188°
2026-05-07 15:06 75.22200 15.82977 39241 ft 453 kts 188°
2026-05-07 15:06 75.15954 15.79474 39254 ft 454 kts 188°
2026-05-07 15:07 75.09702 15.75997 39247 ft 454 kts 188°
2026-05-07 15:07 75.03451 15.72549 39234 ft 454 kts 188°
2026-05-07 15:08 74.97195 15.69128 39245 ft 454 kts 188°
2026-05-07 15:08 74.90939 15.65734 39234 ft 454 kts 188°
2026-05-07 15:09 74.84678 15.62365 39238 ft 454 kts 188°
2026-05-07 15:09 74.78415 15.59022 39236 ft 454 kts 187°
2026-05-07 15:10 74.72157 15.55709 39234 ft 454 kts 187°
2026-05-07 15:10 74.65893 15.52419 39228 ft 454 kts 187°
2026-05-07 15:11 74.59630 15.49157 39223 ft 454 kts 187°
2026-05-07 15:11 74.53370 15.45922 39230 ft 454 kts 187°
2026-05-07 15:12 74.47109 15.42711 39224 ft 454 kts 187°
2026-05-07 15:12 74.40845 15.39525 39228 ft 454 kts 187°
2026-05-07 15:13 74.34621 15.36384 39226 ft 454 kts 187°
2026-05-07 15:13 74.28315 15.33227 39225 ft 454 kts 187°
2026-05-07 15:14 74.22088 15.30134 39221 ft 454 kts 187°
2026-05-07 15:14 74.15818 15.27043 39204 ft 455 kts 187°
2026-05-07 15:15 74.09548 15.23977 39209 ft 455 kts 187°
2026-05-07 15:15 74.03277 15.20934 39214 ft 455 kts 187°
2026-05-07 15:16 73.97005 15.17912 39205 ft 455 kts 187°
2026-05-07 15:16 73.90729 15.14914 39205 ft 455 kts 187°
2026-05-07 15:17 73.84456 15.11939 39203 ft 455 kts 187°
2026-05-07 15:17 73.78180 15.08985 39194 ft 455 kts 187°
2026-05-07 15:18 73.71899 15.06051 39193 ft 455 kts 187°
2026-05-07 15:18 73.65615 15.03137 39186 ft 455 kts 187°
2026-05-07 15:19 73.59330 15.00246 39189 ft 456 kts 187°
2026-05-07 15:19 73.53044 14.97376 39175 ft 456 kts 187°
2026-05-07 15:20 73.46750 14.94523 39170 ft 456 kts 186°
2026-05-07 15:20 73.40457 14.91694 39179 ft 456 kts 187°
2026-05-07 15:21 73.34161 14.88881 39168 ft 456 kts 186°
2026-05-07 15:21 73.27901 14.86107 39168 ft 456 kts 186°
2026-05-07 15:22 73.21601 14.83335 39156 ft 456 kts 186°
2026-05-07 15:22 73.15299 14.80583 39157 ft 456 kts 186°
2026-05-07 15:23 73.08998 14.77851 39151 ft 456 kts 187°
2026-05-07 15:23 73.02696 14.75138 39139 ft 456 kts 186°
2026-05-07 15:24 72.96391 14.72444 39141 ft 456 kts 186°
2026-05-07 15:24 72.90090 14.69770 39139 ft 457 kts 186°
2026-05-07 15:25 72.83780 14.67112 39124 ft 457 kts 186°
2026-05-07 15:25 72.77478 14.64478 39127 ft 456 kts 186°
2026-05-07 15:26 72.71171 14.61859 39127 ft 457 kts 186°
2026-05-07 15:26 72.64862 14.59258 39125 ft 457 kts 186°
2026-05-07 15:27 72.58557 14.56677 39126 ft 457 kts 186°
2026-05-07 15:27 72.52247 14.54112 39114 ft 457 kts 186°
2026-05-07 15:28 72.45942 14.51568 39121 ft 456 kts 186°
2026-05-07 15:28 72.39633 14.49040 39109 ft 457 kts 186°
2026-05-07 15:29 72.34387 14.46950 39104 ft 457 kts 186°
2026-05-07 15:29 72.28077 14.44454 39103 ft 457 kts 186°
2026-05-07 15:30 72.21764 14.41973 39102 ft 457 kts 186°
2026-05-07 15:30 72.15451 14.39510 39114 ft 457 kts 186°
2026-05-07 15:31 72.09135 14.37062 39098 ft 457 kts 186°
2026-05-07 15:31 72.02811 14.34628 39095 ft 458 kts 186°
2026-05-07 15:32 71.96490 14.32212 39094 ft 458 kts 186°
2026-05-07 15:32 71.90162 14.29809 39087 ft 458 kts 186°
2026-05-07 15:33 71.83828 14.27420 39087 ft 458 kts 186°
2026-05-07 15:33 71.77491 14.25047 39087 ft 459 kts 186°
2026-05-07 15:34 71.71155 14.22690 39074 ft 459 kts 186°
2026-05-07 15:34 71.64813 14.20347 39075 ft 458 kts 186°
2026-05-07 15:35 71.58476 14.18021 39074 ft 459 kts 186°
2026-05-07 15:35 71.52133 14.15708 39079 ft 459 kts 186°
2026-05-07 15:36 71.45790 14.13411 39073 ft 459 kts 186°
2026-05-07 15:36 71.39451 14.11130 39063 ft 459 kts 186°
2026-05-07 15:37 71.33108 14.08863 39064 ft 458 kts 186°
2026-05-07 15:37 71.26767 14.06612 39058 ft 459 kts 186°
2026-05-07 15:38 71.20429 14.04376 39065 ft 459 kts 186°
2026-05-07 15:38 71.14086 14.02153 39058 ft 459 kts 186°
2026-05-07 15:39 71.07740 13.99944 39056 ft 459 kts 186°
2026-05-07 15:39 71.01395 13.97749 39047 ft 459 kts 186°
2026-05-07 15:40 70.95053 13.95570 39048 ft 459 kts 186°
2026-05-07 15:40 70.88705 13.93403 39054 ft 459 kts 186°
2026-05-07 15:41 70.82363 13.91251 39048 ft 459 kts 186°
2026-05-07 15:41 70.76062 13.89127 39043 ft 459 kts 186°
2026-05-07 15:42 70.69724 13.87004 39047 ft 458 kts 186°
2026-05-07 15:42 70.63387 13.84895 39043 ft 458 kts 186°
2026-05-07 15:43 70.57047 13.82798 39039 ft 458 kts 186°
2026-05-07 15:43 70.50711 13.80716 39040 ft 458 kts 186°
2026-05-07 15:44 70.44375 13.78646 39027 ft 458 kts 186°
2026-05-07 15:44 70.38038 13.76589 39038 ft 458 kts 186°
2026-05-07 15:45 70.31704 13.74547 39030 ft 458 kts 186°
2026-05-07 15:45 70.25370 13.72517 39025 ft 457 kts 187°
2026-05-07 15:46 70.15886 13.69500 39020 ft 457 kts 186°
2026-05-07 15:47 70.09571 13.67506 39019 ft 456 kts 186°
2026-05-07 15:47 70.03259 13.65526 39021 ft 456 kts 186°
2026-05-07 15:48 69.96953 13.63560 39017 ft 455 kts 187°
2026-05-07 15:48 69.90656 13.61609 39016 ft 455 kts 187°
2026-05-07 15:49 69.84366 13.59671 39013 ft 454 kts 187°
2026-05-07 15:49 69.78080 13.57745 39020 ft 454 kts 187°
2026-05-07 15:50 69.71797 13.55833 39019 ft 454 kts 187°
2026-05-07 15:50 69.65519 13.53936 39015 ft 453 kts 188°
2026-05-07 15:51 69.59250 13.52040 39014 ft 453 kts 187°
2026-05-07 15:51 69.52983 13.50172 39017 ft 453 kts 187°
2026-05-07 15:52 69.46724 13.48316 39010 ft 452 kts 186°
2026-05-07 15:52 69.40469 13.46467 39022 ft 452 kts 187°
2026-05-07 15:53 69.34217 13.44626 39005 ft 452 kts 188°
2026-05-07 15:53 69.27968 13.42706 39017 ft 451 kts 188°
2026-05-07 15:54 69.21737 13.40532 39024 ft 451 kts 188°
2026-05-07 15:54 69.15549 13.38347 39017 ft 451 kts 188°
2026-05-07 15:55 69.09275 13.36172 39018 ft 451 kts 189°
2026-05-07 15:55 69.03081 13.34054 39027 ft 451 kts 189°
2026-05-07 15:56 68.96846 13.31945 39025 ft 451 kts 188°
2026-05-07 15:56 68.90610 13.29847 39029 ft 451 kts 189°
2026-05-07 15:57 68.84377 13.27758 39032 ft 451 kts 189°
2026-05-07 15:57 68.78139 13.25680 39025 ft 452 kts 188°
2026-05-07 15:58 68.71902 13.23615 39034 ft 452 kts 188°
2026-05-07 15:58 68.65657 13.21557 39027 ft 451 kts 188°
2026-05-07 15:59 68.59424 13.19515 39033 ft 451 kts 188°
2026-05-07 15:59 68.53185 13.17483 39031 ft 451 kts 189°
2026-05-07 16:00 68.46956 13.15466 39038 ft 451 kts 189°
2026-05-07 16:00 68.40726 13.13460 39041 ft 451 kts 189°
2026-05-07 16:01 68.34501 13.11467 39029 ft 450 kts 188°
2026-05-07 16:01 68.28280 13.09486 39035 ft 450 kts 188°
2026-05-07 16:02 68.22061 13.07515 39039 ft 450 kts 188°
2026-05-07 16:02 68.15845 13.05556 39043 ft 450 kts 188°
2026-05-07 16:03 68.09625 13.03607 39049 ft 450 kts 188°
2026-05-07 16:03 68.03409 13.01670 39057 ft 450 kts 188°
2026-05-07 16:04 67.97185 12.99741 39043 ft 450 kts 189°
2026-05-07 16:04 67.91000 12.97834 39060 ft 450 kts 189°
2026-05-07 16:05 67.84772 12.95924 39050 ft 450 kts 188°
2026-05-07 16:05 67.78551 12.94027 39060 ft 450 kts 188°
2026-05-07 16:06 67.72329 12.92139 39059 ft 450 kts 188°
2026-05-07 16:06 67.66112 12.90263 39051 ft 450 kts 189°
2026-05-07 16:07 67.59899 12.88398 39060 ft 449 kts 189°
2026-05-07 16:07 67.53693 12.86545 39059 ft 449 kts 189°
2026-05-07 16:08 67.47486 12.84702 39063 ft 449 kts 189°
2026-05-07 16:08 67.41284 12.82869 39062 ft 448 kts 189°
2026-05-07 16:09 67.35083 12.81047 39060 ft 448 kts 189°
2026-05-07 16:09 67.28886 12.79235 39062 ft 448 kts 189°
2026-05-07 16:10 67.22687 12.77432 39065 ft 448 kts 189°
2026-05-07 16:10 67.16490 12.75639 39068 ft 448 kts 188°
2026-05-07 16:11 67.10295 12.73855 39065 ft 448 kts 188°
2026-05-07 16:11 67.04095 12.72080 39065 ft 448 kts 188°
2026-05-07 16:12 66.97898 12.70315 39067 ft 448 kts 189°
2026-05-07 16:12 66.91702 12.68558 39073 ft 448 kts 189°
2026-05-07 16:13 66.85552 12.66824 39079 ft 448 kts 189°
2026-05-07 16:13 66.79356 12.65085 39079 ft 448 kts 189°
2026-05-07 16:14 66.73165 12.63357 39082 ft 448 kts 189°
2026-05-07 16:14 66.66969 12.61636 39075 ft 448 kts 189°
2026-05-07 16:15 66.60778 12.59925 39087 ft 447 kts 189°
2026-05-07 16:15 66.55589 12.58497 39088 ft 448 kts 189°
2026-05-07 16:16 66.49441 12.56814 39087 ft 448 kts 189°
2026-05-07 16:16 66.43250 12.55127 39088 ft 448 kts 189°
2026-05-07 16:17 66.37057 12.53448 39078 ft 447 kts 189°
2026-05-07 16:17 66.30868 12.51778 39088 ft 447 kts 189°
2026-05-07 16:18 66.24687 12.50119 39092 ft 447 kts 189°
2026-05-07 16:18 66.18505 12.48468 39095 ft 447 kts 189°
2026-05-07 16:19 66.12326 12.46825 39099 ft 447 kts 189°
2026-05-07 16:19 66.06149 12.45191 39089 ft 447 kts 189°
2026-05-07 16:20 65.99971 12.43566 39101 ft 446 kts 189°
2026-05-07 16:20 65.93803 12.41949 39102 ft 446 kts 189°
2026-05-07 16:21 65.87634 12.40341 39105 ft 446 kts 189°
2026-05-07 16:21 65.81467 12.38741 39106 ft 446 kts 189°
2026-05-07 16:22 65.75303 12.37150 39106 ft 445 kts 189°
2026-05-07 16:22 65.69142 12.35567 39112 ft 445 kts 189°
2026-05-07 16:23 65.62988 12.33993 39123 ft 445 kts 189°
2026-05-07 16:23 65.56836 12.32427 39129 ft 445 kts 189°
2026-05-07 16:24 65.50722 12.30878 39137 ft 445 kts 189°
2026-05-07 16:24 65.44565 12.29326 39131 ft 445 kts 189°
2026-05-07 16:25 65.38410 12.27782 39111 ft 445 kts 189°
2026-05-07 16:25 65.32244 12.26242 39117 ft 445 kts 189°
2026-05-07 16:26 65.26078 12.24710 39122 ft 446 kts 189°
2026-05-07 16:26 65.19929 12.23188 39128 ft 446 kts 189°
2026-05-07 16:27 65.13757 12.21668 39127 ft 446 kts 189°
2026-05-07 16:27 65.07584 12.20155 39119 ft 446 kts 189°
2026-05-07 16:28 65.01414 12.18650 39125 ft 446 kts 189°
2026-05-07 16:28 64.95246 12.17153 39129 ft 445 kts 189°
2026-05-07 16:29 64.89079 12.15663 39139 ft 445 kts 189°
2026-05-07 16:29 64.82913 12.14179 39137 ft 445 kts 189°
2026-05-07 16:30 64.76752 12.12703 39127 ft 445 kts 190°
2026-05-07 16:30 64.70591 12.11235 39132 ft 445 kts 190°
2026-05-07 16:31 64.64441 12.09776 39137 ft 444 kts 189°
2026-05-07 16:31 64.58302 12.08326 39145 ft 444 kts 189°
2026-05-07 16:32 64.52201 12.06891 39152 ft 443 kts 189°
2026-05-07 16:32 64.46063 12.05454 39125 ft 443 kts 190°
2026-05-07 16:33 64.39933 12.04026 39146 ft 443 kts 190°
2026-05-07 16:33 64.33805 12.02603 39152 ft 443 kts 190°
2026-05-07 16:34 64.27675 12.01188 39151 ft 443 kts 190°
2026-05-07 16:34 64.21544 11.99778 39141 ft 443 kts 190°
2026-05-07 16:35 64.15417 11.98375 39148 ft 442 kts 190°
2026-05-07 16:35 64.09289 11.96978 39146 ft 443 kts 190°
2026-05-07 16:36 64.03159 11.95587 39153 ft 443 kts 190°
2026-05-07 16:36 63.97020 11.94200 39145 ft 443 kts 190°
2026-05-07 16:37 63.90888 11.92822 39153 ft 443 kts 190°
2026-05-07 16:37 63.84755 11.91448 39138 ft 443 kts 190°
2026-05-07 16:38 63.78630 11.90083 39144 ft 442 kts 190°
2026-05-07 16:38 63.72509 11.88724 39152 ft 442 kts 190°
2026-05-07 16:39 63.66393 11.87372 39152 ft 442 kts 190°
2026-05-07 16:39 63.60274 11.86025 39157 ft 442 kts 190°
2026-05-07 16:40 63.54199 11.84694 39139 ft 441 kts 190°
2026-05-07 16:40 63.48087 11.83360 39153 ft 441 kts 190°
2026-05-07 16:41 63.41976 11.82031 39157 ft 441 kts 190°
2026-05-07 16:41 63.35860 11.80712 39157 ft 442 kts 189°
2026-05-07 16:42 63.29674 11.80735 39163 ft 446 kts 181°
2026-05-07 16:42 63.23472 11.81528 39140 ft 446 kts 181°
2026-05-07 16:43 63.17273 11.82299 39149 ft 446 kts 182°
2026-05-07 16:43 63.11076 11.82980 39154 ft 446 kts 182°
2026-05-07 16:44 63.04882 11.83619 39154 ft 446 kts 182°
2026-05-07 16:44 62.98678 11.84250 39138 ft 446 kts 182°
2026-05-07 16:45 62.92478 11.84880 39117 ft 446 kts 182°
2026-05-07 16:45 62.86296 11.85508 39132 ft 444 kts 182°
2026-05-07 16:46 62.80162 11.86128 39121 ft 444 kts 182°
2026-05-07 16:46 62.73995 11.86749 39114 ft 443 kts 182°
2026-05-07 16:47 62.67830 11.87366 39109 ft 443 kts 182°
2026-05-07 16:47 62.61664 11.87982 39073 ft 443 kts 182°
2026-05-07 16:48 62.55509 11.88594 39104 ft 443 kts 182°
2026-05-07 16:48 62.49354 11.89203 39115 ft 443 kts 182°
2026-05-07 16:49 62.43209 11.89809 39114 ft 443 kts 182°
2026-05-07 16:49 62.37048 11.90414 39099 ft 443 kts 182°
2026-05-07 16:49 62.33945 11.90714 38619 ft 450 kts 182°
2026-05-07 16:50 62.30823 11.91018 37978 ft 447 kts 183°
2026-05-07 16:50 62.27729 11.91324 37439 ft 443 kts 184°
2026-05-07 16:50 62.24669 11.91629 37003 ft 437 kts 184°
2026-05-07 16:50 62.21644 11.91927 36534 ft 433 kts 184°
2026-05-07 16:51 62.18655 11.92219 36093 ft 428 kts 185°
2026-05-07 16:51 62.15690 11.92505 35636 ft 425 kts 185°
2026-05-07 16:51 62.12750 11.92786 35190 ft 421 kts 185°
2026-05-07 16:51 62.09831 11.93065 34745 ft 419 kts 186°
2026-05-07 16:52 62.06966 11.93338 34286 ft 417 kts 186°
2026-05-07 16:52 62.04078 11.93613 33793 ft 415 kts 186°
2026-05-07 16:52 62.01202 11.93889 33303 ft 412 kts 186°
2026-05-07 16:52 61.98342 11.94356 32812 ft 412 kts 182°
2026-05-07 16:53 61.95503 11.95121 32371 ft 411 kts 181°
2026-05-07 16:53 61.92680 11.95967 31943 ft 408 kts 181°
2026-05-07 16:53 61.89881 11.96826 31535 ft 405 kts 181°
2026-05-07 16:53 61.87099 11.97672 31122 ft 402 kts 181°
2026-05-07 16:54 61.84340 11.98495 30724 ft 399 kts 181°
2026-05-07 16:54 61.81600 11.99298 30339 ft 396 kts 182°
2026-05-07 16:54 61.78871 12.00087 29907 ft 394 kts 182°
2026-05-07 16:54 61.76163 12.00862 29460 ft 392 kts 182°
2026-05-07 16:55 61.73477 12.01630 29033 ft 388 kts 182°
2026-05-07 16:55 61.70812 12.02390 28638 ft 384 kts 182°
2026-05-07 16:55 61.68178 12.03139 28195 ft 380 kts 182°
2026-05-07 16:55 61.65577 12.03878 27847 ft 376 kts 182°
2026-05-07 16:56 61.62991 12.04608 27423 ft 374 kts 182°
2026-05-07 16:56 61.60426 12.05332 27062 ft 371 kts 182°
2026-05-07 16:56 61.55332 12.06761 26271 ft 367 kts 181°
2026-05-07 16:57 61.52805 12.07470 25893 ft 365 kts 182°
2026-05-07 16:57 61.50295 12.08174 25520 ft 363 kts 182°
2026-05-07 16:57 61.47794 12.08874 25126 ft 362 kts 182°
2026-05-07 16:57 61.45306 12.09569 24748 ft 360 kts 181°
2026-05-07 16:58 61.42833 12.10260 24376 ft 358 kts 181°
2026-05-07 16:58 61.40371 12.10946 23988 ft 356 kts 181°
2026-05-07 16:58 61.37920 12.11627 23543 ft 355 kts 181°
2026-05-07 16:58 61.35476 12.12305 23129 ft 353 kts 181°
2026-05-07 16:59 61.33061 12.12790 22670 ft 344 kts 189°
2026-05-07 16:59 61.30691 12.12138 21681 ft 347 kts 202°
2026-05-07 16:59 61.28511 12.10644 21217 ft 348 kts 208°
2026-05-07 16:59 61.26228 12.08754 20622 ft 357 kts 209°
2026-05-07 17:00 61.23911 12.06776 20032 ft 362 kts 208°
2026-05-07 17:00 61.21578 12.04782 19437 ft 364 kts 208°
2026-05-07 17:00 61.19250 12.02813 18946 ft 359 kts 208°
2026-05-07 17:00 61.16965 12.00899 18444 ft 352 kts 207°
2026-05-07 17:01 61.14704 11.99012 17894 ft 349 kts 207°
2026-05-07 17:01 61.12458 11.97146 17340 ft 346 kts 207°
2026-05-07 17:01 61.10233 11.95302 16781 ft 343 kts 207°
2026-05-07 17:01 61.08026 11.93479 16255 ft 340 kts 206°
2026-05-07 17:02 61.05836 11.91670 15731 ft 338 kts 206°
2026-05-07 17:02 61.03661 11.89877 15215 ft 335 kts 206°
2026-05-07 17:02 61.01499 11.88098 14710 ft 334 kts 206°
2026-05-07 17:02 60.99349 11.86331 14212 ft 332 kts 206°
2026-05-07 17:03 60.97207 11.84575 13701 ft 330 kts 205°
2026-05-07 17:03 60.95078 11.82830 13159 ft 329 kts 205°
2026-05-07 17:03 60.92961 11.81081 12606 ft 326 kts 206°
2026-05-07 17:03 60.90934 11.79053 12071 ft 323 kts 210°
2026-05-07 17:04 60.88966 11.76873 11561 ft 321 kts 211°
2026-05-07 17:04 60.87015 11.74667 11043 ft 319 kts 211°
2026-05-07 17:04 60.85076 11.72479 10551 ft 317 kts 210°
2026-05-07 17:04 60.83811 11.71072 10494 ft 307 kts 210°
2026-05-07 17:05 60.81369 11.68368 10342 ft 289 kts 211°
2026-05-07 17:05 60.79630 11.66453 10207 ft 280 kts 211°
2026-05-07 17:05 60.78497 11.65208 10140 ft 279 kts 211°
2026-05-07 17:05 60.76775 11.63321 10100 ft 281 kts 211°
2026-05-07 17:06 60.75057 11.61443 10094 ft 279 kts 211°
2026-05-07 17:06 60.73350 11.59583 10070 ft 277 kts 211°
2026-05-07 17:06 60.71655 11.57741 9874 ft 275 kts 210°
2026-05-07 17:06 60.69969 11.55911 9452 ft 275 kts 210°
2026-05-07 17:07 60.68280 11.54079 9056 ft 275 kts 210°
2026-05-07 17:07 60.66595 11.52256 8707 ft 273 kts 210°
2026-05-07 17:07 60.64924 11.50451 8361 ft 271 kts 210°
2026-05-07 17:07 60.63257 11.48652 8019 ft 270 kts 209°
2026-05-07 17:08 60.61603 11.46869 7682 ft 268 kts 209°
2026-05-07 17:08 60.59957 11.45096 7331 ft 267 kts 209°
2026-05-07 17:08 60.58320 11.43336 7029 ft 264 kts 209°
2026-05-07 17:08 60.56737 11.41638 6942 ft 249 kts 209°
2026-05-07 17:09 60.55258 11.40051 6815 ft 236 kts 208°
2026-05-07 17:09 60.53808 11.38495 6551 ft 235 kts 208°
2026-05-07 17:09 60.52365 11.36949 6293 ft 233 kts 207°
2026-05-07 17:09 60.50937 11.35422 6050 ft 231 kts 207°
2026-05-07 17:10 60.49509 11.33896 5730 ft 233 kts 207°
2026-05-07 17:10 60.48077 11.32367 5465 ft 232 kts 208°
2026-05-07 17:10 60.46657 11.30851 5194 ft 231 kts 208°
2026-05-07 17:10 60.45242 11.29343 4949 ft 230 kts 208°
2026-05-07 17:11 60.43841 11.27852 4655 ft 230 kts 208°
2026-05-07 17:11 60.42431 11.26353 4394 ft 229 kts 208°
2026-05-07 17:11 60.41020 11.24855 4135 ft 228 kts 208°
2026-05-07 17:11 60.39571 11.23509 4038 ft 228 kts 199°
2026-05-07 17:12 60.38092 11.22599 3998 ft 216 kts 196°
2026-05-07 17:12 60.36687 11.21812 3981 ft 203 kts 196°
2026-05-07 17:12 60.35351 11.21052 3846 ft 196 kts 196°
2026-05-07 17:12 60.34057 11.20307 3601 ft 190 kts 196°
2026-05-07 17:13 60.32801 11.19581 3349 ft 187 kts 196°
2026-05-07 17:13 60.31552 11.18858 3085 ft 186 kts 196°
2026-05-07 17:13 60.30331 11.18153 2841 ft 185 kts 196°
2026-05-07 17:13 60.29090 11.17436 2576 ft 185 kts 196°
2026-05-07 17:14 60.27881 11.16737 2313 ft 175 kts 196°
2026-05-07 17:14 60.26754 11.16085 2084 ft 162 kts 196°
2026-05-07 17:14 60.25724 11.15490 1916 ft 144 kts 195°
2026-05-07 17:14 60.24801 11.14955 1683 ft 132 kts 195°
2026-05-07 17:15 60.23933 11.14461 1525 ft 130 kts 195°
2026-05-07 17:15 60.23043 11.13920 1330 ft 136 kts 196°
2026-05-07 17:15 60.22152 11.13420 1150 ft 135 kts 196°
2026-05-07 17:15 60.21243 11.12896 959 ft 137 kts 195°
2026-05-07 17:16 60.20336 11.12357 784 ft 137 kts 196°
2026-05-07 17:16 60.19447 11.11855 682 ft 124 kts 195°
2026-05-07 17:16 60.18764 11.11462 683 ft 81 kts 196°
2026-05-07 17:16 60.18519 11.11309 682 ft 0 kts 215°
2026-05-07 17:17 60.18490 11.11265 681 ft 10 kts 216°
2026-05-07 17:17 60.18444 11.11164 682 ft 8 kts 241°
2026-05-07 17:17 60.18434 11.11065 681 ft 7 kts 277°
2026-05-07 17:17 60.18448 11.10961 679 ft 8 kts 287°
2026-05-07 17:18 60.18463 11.10858 680 ft 8 kts 287°
2026-05-07 17:18 60.18463 11.10752 680 ft 8 kts 237°
2026-05-07 17:18 60.18416 11.10703 679 ft 8 kts 202°
2026-05-07 17:18 60.18365 11.10671 680 ft 7 kts 197°
2026-05-07 17:19 60.18316 11.10643 680 ft 8 kts 195°
2026-05-07 17:19 60.18265 11.10615 679 ft 8 kts 195°
2026-05-07 17:19 60.18215 11.10586 677 ft 7 kts 197°
2026-05-07 17:19 60.18168 11.10557 679 ft 7 kts 197°
2026-05-07 17:20 60.18121 11.10530 678 ft 7 kts 188°
2026-05-07 17:20 60.18077 11.10556 675 ft 7 kts 135°
2026-05-07 17:20 60.18073 11.10655 676 ft 8 kts 59°
2026-05-07 17:20 60.18119 11.10699 676 ft 8 kts 16°
2026-05-07 17:21 60.18179 11.10734 676 ft 11 kts 16°
2026-05-07 17:21 60.18284 11.10793 678 ft 23 kts 16°
2026-05-07 17:21 60.18469 11.10900 679 ft 29 kts 16°
2026-05-07 17:21 60.18655 11.11007 681 ft 27 kts 16°
2026-05-07 17:22 60.18828 11.11107 682 ft 25 kts 17°
2026-05-07 17:22 60.18989 11.11201 680 ft 23 kts 16°
2026-05-07 17:22 60.19141 11.11289 682 ft 22 kts 16°
2026-05-07 17:22 60.19289 11.11376 681 ft 22 kts 17°
2026-05-07 17:23 60.19392 11.11389 681 ft 13 kts 314°
2026-05-07 17:23 60.19420 11.11224 682 ft 12 kts 284°
2026-05-07 17:23 60.19433 11.11127 682 ft 5 kts 271°
2026-05-07 17:23 60.19405 11.11099 683 ft 5 kts 193°
2026-05-07 17:24 60.19374 11.11082 684 ft 5 kts 196°